�N����,����,�~����,�C��,���x,�C��,����,���ϕ���,�ő�u�ԕ���,�ő厞����,���˗�,�I�_���x,�n�����x,�ő啗���N��,DTYPE
"17/08/09","00:10",0.0,25.7,81.3,992.7,298.1,0.8,1.8,239.2,0.00,22.3,25.4,"00:09:20",1
"17/08/09","00:20",0.0,25.6,81.8,992.5,295.3,0.7,1.8,297.9,0.00,22.3,25.3,"00:17:04",1
"17/08/09","00:30",0.0,25.6,82.5,992.7,323.9,1.1,2.7,355.8,0.00,22.4,25.3,"00:26:08",1
"17/08/09","00:40",0.0,25.4,83.2,992.7,344.8,1.1,2.2,14.9,0.00,22.4,25.4,"00:36:00",1
"17/08/09","00:50",0.0,25.1,84.4,992.7,348.8,1.1,2.2,344.4,0.00,22.3,25.4,"00:47:36",1
"17/08/09","01:00",0.0,24.9,85.2,992.2,352.4,1.0,2.0,5.8,0.00,22.3,25.4,"00:50:16",1
"17/08/09","01:10",0.0,24.7,86.3,992.5,340.2,1.0,2.1,8.4,0.00,22.3,25.4,"01:06:16",1
"17/08/09","01:20",0.0,24.5,87.2,992.7,343.2,1.0,1.7,345.5,0.00,22.3,25.5,"01:17:20",1
"17/08/09","01:30",0.0,24.6,87.6,992.7,319.3,0.8,1.6,354.0,0.00,22.4,25.3,"01:21:28",1
"17/08/09","01:40",0.0,24.7,87.5,992.7,311.3,1.0,2.0,333.0,0.00,22.5,25.4,"01:33:52",1
"17/08/09","01:50",0.0,24.9,87.1,992.5,296.3,0.7,1.6,236.4,0.00,22.6,25.3,"01:46:00",1
"17/08/09","02:00",0.0,25.0,86.9,992.2,317.8,0.7,1.4,276.8,0.00,22.7,25.3,"01:51:04",1
"17/08/09","02:10",0.0,24.8,87.3,992.5,331.8,0.7,1.3,339.3,0.00,22.6,25.3,"02:03:52",1
"17/08/09","02:20",0.0,24.6,87.8,992.7,324.9,0.6,1.2,315.0,0.00,22.5,25.2,"02:18:40",1
"17/08/09","02:30",0.0,24.4,88.2,992.5,352.6,0.7,1.4,4.6,0.00,22.4,25.1,"02:24:16",1
"17/08/09","02:40",0.0,24.0,88.9,992.5,315.7,0.6,1.1,273.5,0.00,22.1,25.3,"02:31:36",1
"17/08/09","02:50",0.0,23.8,89.4,992.7,337.4,0.8,1.9,327.7,0.00,22.0,25.2,"02:48:40",1
"17/08/09","03:00",0.0,23.5,90.2,992.5,327.2,1.3,1.8,336.6,0.00,21.8,25.1,"02:53:20",1
"17/08/09","03:10",0.0,23.4,91.2,992.5,333.6,1.1,1.8,333.8,0.00,21.9,25.1,"03:09:16",1
"17/08/09","03:20",0.0,23.3,91.6,992.5,326.8,1.1,1.7,345.9,0.00,21.9,25.0,"03:10:16",1
"17/08/09","03:30",0.0,23.2,91.7,992.2,303.2,0.6,1.2,241.7,0.00,21.8,25.2,"03:25:20",1
"17/08/09","03:40",0.0,23.3,92.0,992.7,303.9,0.5,1.1,345.2,0.00,22.0,24.9,"03:33:36",1
"17/08/09","03:50",0.0,23.3,92.4,992.5,337.4,1.0,1.7,331.4,0.00,22.0,24.8,"03:44:40",1
"17/08/09","04:00",0.0,23.3,92.4,992.7,326.4,1.1,1.9,330.4,0.00,22.0,24.9,"03:58:08",1
"17/08/09","04:10",0.0,23.2,92.6,992.5,313.4,0.8,1.6,321.6,0.00,22.0,24.7,"04:08:24",1
"17/08/09","04:20",0.0,23.1,92.8,992.7,292.0,0.6,1.1,252.2,0.00,21.9,24.7,"04:10:40",1
"17/08/09","04:30",0.0,23.0,93.1,993.0,304.7,0.7,1.4,323.5,0.00,21.9,25.0,"04:23:36",1
"17/08/09","04:40",0.0,23.0,93.1,993.0,324.6,0.7,1.6,334.5,0.00,21.9,24.7,"04:38:40",1
"17/08/09","04:50",0.0,23.1,93.3,992.7,321.2,0.5,1.3,322.3,0.00,22.0,24.7,"04:40:08",1
"17/08/09","05:00",0.0,23.0,93.5,993.0,317.9,0.8,1.6,323.2,0.00,21.9,24.7,"04:55:52",1
"17/08/09","05:10",0.0,23.0,93.7,993.0,315.8,0.8,1.7,333.9,0.00,22.0,24.9,"05:02:16",1
"17/08/09","05:20",0.0,23.0,93.8,993.2,317.2,0.8,2.5,335.3,0.00,22.0,24.8,"05:14:00",1
"17/08/09","05:30",0.0,22.8,93.7,993.2,288.5,0.8,1.3,312.6,0.00,21.8,24.6,"05:22:08",1
"17/08/09","05:40",0.0,22.8,93.9,993.4,320.0,0.7,1.2,313.0,0.00,21.8,24.7,"05:39:36",1
"17/08/09","05:50",0.0,22.8,94.2,993.4,296.1,0.7,1.0,257.6,0.00,21.9,24.7,"05:42:16",1
"17/08/09","06:00",0.0,22.9,94.4,993.4,291.3,0.5,1.1,321.8,0.00,22.0,24.5,"05:52:48",1
"17/08/09","06:10",0.0,23.1,94.7,993.7,331.4,0.2,0.9,38.8,0.00,22.2,24.7,"06:08:08",1
"17/08/09","06:20",0.0,23.5,94.5,993.7,32.4,0.3,1.1,59.4,0.00,22.6,24.5,"06:13:44",1
"17/08/09","06:30",0.0,24.1,94.0,993.4,345.3,0.6,1.3,332.6,0.01,23.1,24.6,"06:28:40",1
"17/08/09","06:40",0.0,24.3,93.5,993.4,324.5,0.7,1.2,324.2,0.01,23.2,24.6,"06:30:08",1
"17/08/09","06:50",0.0,25.0,92.8,993.2,328.4,0.1,0.9,339.2,0.02,23.8,24.4,"06:48:40",1
"17/08/09","07:00",0.0,25.1,91.2,993.4,90.3,0.2,0.9,127.1,0.02,23.6,24.6,"06:56:56",1
"17/08/09","07:10",0.0,25.7,89.3,993.4,163.1,0.2,1.1,131.1,0.06,23.8,24.7,"07:04:48",1
"17/08/09","07:20",0.0,27.0,84.3,993.2,103.0,0.3,0.9,114.0,0.09,24.2,24.7,"07:17:36",1
"17/08/09","07:30",0.0,27.6,82.4,993.0,136.4,0.3,0.9,119.3,0.12,24.4,24.8,"07:21:12",1
"17/08/09","07:40",0.0,27.8,79.4,993.2,103.3,0.7,1.6,109.7,0.12,23.9,24.8,"07:37:20",1
"17/08/09","07:50",0.0,28.0,79.6,993.0,122.0,0.7,2.4,126.6,0.14,24.2,25.1,"07:43:44",1
"17/08/09","08:00",0.0,28.7,73.8,992.7,99.6,0.5,1.2,1.5,0.17,23.6,24.8,"07:53:36",1
"17/08/09","08:10",0.0,28.5,73.5,993.0,37.9,0.5,1.3,81.1,0.16,23.3,25.2,"08:04:00",1
"17/08/09","08:20",0.0,29.6,71.7,993.2,149.4,0.5,1.2,168.0,0.24,24.0,25.1,"08:18:16",1
"17/08/09","08:30",0.0,30.2,69.4,993.4,102.8,0.6,1.6,107.0,0.28,24.0,25.4,"08:24:08",1
"17/08/09","08:40",0.0,29.8,69.1,993.7,289.3,0.6,2.0,0.5,0.29,23.6,25.4,"08:30:02",1
"17/08/09","08:50",0.0,30.4,66.4,994.1,15.9,0.8,1.9,1.8,0.31,23.5,25.7,"08:40:16",1
"17/08/09","09:00",0.0,31.0,65.3,994.4,119.5,0.6,1.2,119.2,0.34,23.8,25.7,"08:52:48",1
"17/08/09","09:10",0.0,31.0,64.1,994.4,63.3,1.0,2.1,352.9,0.36,23.5,26.0,"09:08:56",1
"17/08/09","09:20",0.0,31.0,64.1,994.6,356.3,0.8,2.1,12.9,0.38,23.5,25.9,"09:19:28",1
"17/08/09","09:30",0.0,31.2,63.4,994.6,152.5,0.8,2.5,350.8,0.42,23.5,26.3,"09:20:24",1
"17/08/09","09:40",0.0,31.7,63.9,994.8,183.8,0.7,2.0,220.9,0.45,24.1,26.5,"09:37:04",1
"17/08/09","09:50",0.0,31.8,59.7,994.8,167.5,0.8,3.1,337.7,0.46,23.0,26.7,"09:49:44",1
"17/08/09","10:00",0.0,31.7,60.7,994.8,259.8,1.1,2.4,197.9,0.45,23.2,26.9,"09:51:04",1
"17/08/09","10:10",0.0,31.7,61.0,994.8,235.0,1.0,2.8,332.6,0.39,23.3,27.0,"10:05:20",1
"17/08/09","10:20",0.0,30.6,63.9,994.6,230.1,2.0,4.0,193.0,0.32,23.0,27.1,"10:12:32",1
"17/08/09","10:30",0.0,30.8,64.2,994.1,295.1,1.1,3.2,326.9,0.31,23.3,27.5,"10:25:28",1
"17/08/09","10:40",0.0,32.1,60.0,994.4,273.3,1.0,2.5,301.2,0.44,23.4,27.4,"10:30:16",1
"17/08/09","10:50",0.0,32.2,56.6,993.9,311.9,1.3,3.5,2.8,0.55,22.5,27.9,"10:49:28",1
"17/08/09","11:00",0.0,32.6,57.8,994.4,278.0,1.3,3.3,330.3,0.54,23.2,28.0,"10:50:48",1
"17/08/09","11:10",0.0,32.2,57.5,994.1,230.7,1.6,4.4,212.3,0.50,22.8,27.9,"11:04:16",1
"17/08/09","11:20",0.0,32.1,58.5,993.9,265.7,1.3,3.1,331.5,0.42,23.0,27.9,"11:19:04",1
"17/08/09","11:30",0.0,32.2,57.7,993.7,249.0,1.7,3.6,222.1,0.41,22.8,28.4,"11:29:44",1
"17/08/09","11:40",0.0,32.8,58.4,993.7,241.9,1.7,5.6,224.8,0.56,23.6,28.3,"11:32:00",1
"17/08/09","11:50",0.0,33.0,58.0,993.9,262.8,1.3,3.6,347.6,0.58,23.7,28.6,"11:46:16",1
"17/08/09","12:00",0.0,33.1,56.1,993.7,284.9,1.5,2.8,334.1,0.58,23.2,28.8,"11:51:28",1
"17/08/09","12:10",0.0,33.0,54.9,994.1,275.1,1.7,4.2,234.1,0.58,22.8,29.0,"12:08:56",1
"17/08/09","12:20",0.0,33.7,56.3,994.1,233.0,1.5,3.5,216.7,0.59,23.8,29.4,"12:16:16",1
"17/08/09","12:30",0.0,33.7,54.8,993.9,267.2,1.5,4.0,329.0,0.58,23.4,29.4,"12:26:00",1
"17/08/09","12:40",0.0,33.8,52.1,994.1,263.9,1.3,3.4,220.5,0.59,22.6,29.6,"12:38:00",1
"17/08/09","12:50",0.0,33.5,52.2,993.7,260.2,1.3,3.1,356.2,0.60,22.4,29.7,"12:48:32",1
"17/08/09","13:00",0.0,33.9,51.8,993.9,260.1,1.6,3.1,354.9,0.59,22.6,30.0,"12:56:24",1
"17/08/09","13:10",0.0,34.1,53.6,993.9,254.7,1.6,4.7,230.7,0.60,23.4,30.1,"13:08:48",1
"17/08/09","13:20",0.0,34.2,52.0,993.9,273.0,1.7,4.8,219.8,0.58,23.0,30.0,"13:10:02",1
"17/08/09","13:30",0.0,34.3,51.5,993.7,262.4,1.5,5.0,240.9,0.58,22.9,30.2,"13:20:08",1
"17/08/09","13:40",0.0,34.0,49.2,993.4,234.4,2.0,5.1,231.9,0.55,21.9,30.4,"13:38:00",1
"17/08/09","13:50",0.0,34.3,49.6,993.4,282.6,1.3,3.2,249.6,0.54,22.3,30.5,"13:41:04",1
"17/08/09","14:00",0.0,34.7,51.1,993.2,296.3,1.3,4.7,348.0,0.53,23.1,30.4,"13:56:16",1
"17/08/09","14:10",0.0,34.6,48.5,993.2,278.5,1.2,3.6,261.4,0.50,22.2,30.4,"14:04:40",1
"17/08/09","14:20",0.0,34.8,49.6,993.7,282.0,1.2,2.9,291.2,0.51,22.7,30.2,"14:15:44",1
"17/08/09","14:30",0.0,34.7,49.8,993.4,281.7,1.3,3.6,346.4,0.44,22.7,30.3,"14:28:24",1
"17/08/09","14:40",0.0,34.7,47.8,993.0,286.2,1.5,4.5,354.0,0.45,22.0,30.2,"14:33:36",1
"17/08/09","14:50",0.0,35.3,46.1,993.2,287.4,1.2,3.6,224.7,0.49,22.0,30.3,"14:45:04",1
"17/08/09","15:00",0.0,35.6,45.1,993.4,261.8,1.2,3.2,221.7,0.49,21.9,30.4,"14:53:52",1
"17/08/09","15:10",0.0,35.5,47.6,993.2,292.3,1.3,4.2,338.2,0.43,22.7,30.3,"15:00:48",1
"17/08/09","15:20",0.0,35.7,47.8,993.2,290.8,0.8,1.9,268.4,0.43,23.0,30.5,"15:18:32",1
"17/08/09","15:30",0.0,34.6,49.7,993.4,240.8,1.1,3.1,229.4,0.35,22.6,30.6,"15:28:00",1
"17/08/09","15:40",0.0,34.6,47.6,993.2,307.8,1.1,2.8,350.1,0.32,21.9,30.5,"15:36:56",1
"17/08/09","15:50",0.0,34.7,47.6,993.0,251.8,1.1,3.6,348.0,0.29,22.0,30.4,"15:49:20",1
"17/08/09","16:00",0.0,34.9,48.8,992.7,253.9,0.8,2.5,231.9,0.31,22.6,30.5,"15:58:08",1
"17/08/09","16:10",0.0,35.5,48.5,992.5,265.5,0.5,1.4,221.7,0.26,23.0,30.6,"16:02:40",1
"17/08/09","16:20",0.0,34.0,47.8,993.0,243.6,1.1,2.4,200.8,0.21,21.4,30.3,"16:13:12",1
"17/08/09","16:30",0.0,33.6,51.7,992.0,232.5,1.5,3.6,230.4,0.09,22.3,30.6,"16:23:52",1
"17/08/09","16:40",0.0,32.6,58.1,992.0,230.3,1.2,3.2,225.0,0.09,23.3,30.5,"16:37:12",1
"17/08/09","16:50",0.0,32.3,59.2,992.0,227.0,1.2,3.3,229.7,0.08,23.4,30.2,"16:41:52",1
"17/08/09","17:00",0.0,32.2,60.3,991.5,234.2,1.3,2.6,255.1,0.07,23.6,30.2,"16:54:48",1
"17/08/09","17:10",0.0,32.1,60.0,991.3,254.2,0.8,2.9,222.5,0.08,23.4,30.2,"17:02:00",1
"17/08/09","17:20",0.0,32.2,60.4,991.3,326.4,0.7,1.7,312.9,0.07,23.6,29.9,"17:19:36",1
"17/08/09","17:30",0.0,31.8,62.3,991.1,320.9,1.0,2.6,346.3,0.04,23.7,30.0,"17:28:16",1
"17/08/09","17:40",0.0,31.4,63.0,991.1,327.1,1.3,2.6,340.3,0.03,23.5,29.8,"17:33:12",1
"17/08/09","17:50",0.0,31.2,63.4,990.6,344.2,1.2,2.7,336.2,0.03,23.5,29.8,"17:46:48",1
"17/08/09","18:00",0.0,31.0,65.6,990.6,342.7,1.6,2.8,336.9,0.03,23.8,29.7,"17:52:32",1
"17/08/09","18:10",0.0,30.9,67.1,990.4,333.2,1.1,2.6,357.5,0.03,24.1,29.5,"18:06:40",1
"17/08/09","18:20",0.0,31.0,67.3,990.4,344.0,0.8,1.9,348.7,0.05,24.3,29.7,"18:17:52",1
"17/08/09","18:30",0.0,30.9,67.5,990.6,10.7,0.8,1.9,355.8,0.04,24.2,29.5,"18:29:12",1
"17/08/09","18:40",0.0,30.6,69.3,990.8,355.0,0.7,1.7,351.3,0.02,24.4,29.4,"18:31:28",1
"17/08/09","18:50",0.0,30.2,70.0,990.4,347.4,0.7,2.0,337.1,0.00,24.2,29.5,"18:42:16",1
"17/08/09","19:00",0.0,29.8,71.9,990.1,354.8,1.0,2.0,339.7,0.00,24.2,29.2,"18:55:12",1
"17/08/09","19:10",0.0,29.3,73.1,989.9,345.5,0.8,1.9,336.8,0.00,24.0,29.2,"19:08:24",1
"17/08/09","19:20",0.0,29.1,74.7,990.1,342.8,1.1,2.4,336.0,0.00,24.2,29.0,"19:16:48",1
"17/08/09","19:30",0.0,28.9,75.2,990.4,340.9,1.2,2.9,352.2,0.00,24.1,29.0,"19:24:40",1
"17/08/09","19:40",0.0,28.8,75.2,990.6,336.1,1.5,2.7,347.4,0.00,24.0,28.8,"19:35:04",1
"17/08/09","19:50",0.0,28.7,76.8,990.8,329.5,0.3,1.4,348.2,0.00,24.3,28.7,"19:40:40",1
"17/08/09","20:00",0.0,28.4,77.2,990.8,216.3,0.8,1.6,232.2,0.00,24.1,28.8,"19:57:44",1
"17/08/09","20:10",0.0,28.5,78.5,991.1,291.6,0.7,1.2,242.0,0.00,24.4,28.6,"20:00:16",1
"17/08/09","20:20",0.0,28.2,79.2,991.3,338.4,1.2,1.8,342.2,0.00,24.3,28.5,"20:16:24",1
"17/08/09","20:30",0.0,28.2,78.5,991.3,325.3,1.5,2.5,337.4,0.00,24.1,28.6,"20:27:52",1
"17/08/09","20:40",0.0,28.2,78.5,991.5,311.5,1.1,2.5,319.9,0.00,24.1,28.5,"20:31:36",1
"17/08/09","20:50",0.0,28.0,79.1,991.3,268.7,0.5,1.1,300.8,0.00,24.1,28.3,"20:41:04",1
"17/08/09","21:00",0.0,27.7,79.9,991.8,282.4,0.5,1.1,313.2,0.00,24.0,28.3,"20:55:52",1
"17/08/09","21:10",0.0,27.5,81.7,991.8,292.3,0.5,1.2,337.9,0.00,24.1,28.2,"21:05:20",1
"17/08/09","21:20",0.0,27.3,82.6,991.8,288.3,0.3,1.3,341.4,0.00,24.1,28.1,"21:13:12",1
"17/08/09","21:30",0.0,27.2,82.9,992.0,309.1,0.5,1.2,334.3,0.00,24.1,28.0,"21:25:04",1
"17/08/09","21:40",0.0,27.1,83.5,992.2,334.3,1.0,1.7,336.8,0.00,24.1,28.2,"21:36:24",1
"17/08/09","21:50",0.0,27.1,83.3,992.2,330.5,1.3,3.1,335.7,0.00,24.1,27.9,"21:49:44",1
"17/08/09","22:00",0.0,27.3,82.4,992.5,326.5,1.3,2.9,341.8,0.00,24.1,28.0,"21:53:28",1
"17/08/09","22:10",0.0,27.5,82.1,992.0,321.8,1.2,2.4,319.4,0.00,24.2,27.8,"22:00:56",1
"17/08/09","22:20",0.0,27.4,82.4,992.0,283.8,0.7,1.8,326.0,0.00,24.2,27.7,"22:11:28",1
"17/08/09","22:30",0.0,27.3,82.7,992.0,273.2,0.5,0.8,264.4,0.00,24.1,27.7,"22:26:32",1
"17/08/09","22:40",0.0,27.3,83.2,991.8,279.5,0.3,1.6,344.0,0.00,24.2,27.7,"22:31:12",1
"17/08/09","22:50",0.0,27.2,83.5,991.8,272.6,0.2,0.9,266.8,0.00,24.2,27.7,"22:49:36",1
"17/08/09","23:00",0.0,27.1,84.3,992.0,329.1,0.6,1.6,298.6,0.00,24.3,27.6,"22:54:56",1
"17/08/09","23:10",0.0,26.9,84.3,992.0,305.3,0.7,1.6,335.6,0.00,24.1,27.6,"23:08:48",1
"17/08/09","23:20",0.0,26.9,84.4,991.8,290.2,0.6,1.7,343.5,0.00,24.1,27.7,"23:19:44",1
"17/08/09","23:30",0.0,26.9,84.4,991.8,317.7,0.7,1.6,341.7,0.00,24.1,27.5,"23:26:32",1
"17/08/09","23:40",0.0,26.8,84.9,992.0,309.8,0.5,0.9,337.1,0.00,24.1,27.6,"23:35:04",1
"17/08/09","23:50",0.0,26.7,85.9,992.2,316.4,0.6,1.0,310.0,0.00,24.2,27.2,"23:41:36",1
"17/08/09","24:00",0.0,26.5,86.8,992.2,340.0,0.8,1.3,339.3,0.00,24.2,27.3,"23:55:12",1
